Monterrey Gen Maria, Mexico

5:58 PM EST on October 01, 2016 (GMT -0500)
Gen Mariano Escobedo International

Weather History for MMMY - November, 2012

Change the Weather History Date:

Tuesday, November 13, 2012

  Actual Average Record
Temperature  
Mean Temperature 60 °F -  
Max Temperature 62 °F 74 °F 87 °F (2011)
Min Temperature 53 °F 56 °F 42 °F (2014)
Degree Days  
Heating Degree Days 6    
Growing Degree Days 10 (Base 50)    
Moisture  
Dew Point 34 °F    
Average Humidity 41    
Maximum Humidity 88    
Minimum Humidity 22    
Precipitation  
Precipitation 0.00 in - - ()
Sea Level Pressure  
Sea Level Pressure 30.31 in    
Wind  
Wind Speed 8 mph ()    
Max Wind Speed 14 mph    
Max Gust Speed -    
Visibility 12.9 miles    
Events      
Averages and records for this station are not official NWS values.
T = Trace of Precipitation, MM = Missing Value Source: Averaged Metar Reports

Daily Weather History Graph

Daily Weather History Graph

Search for Another Location

Airport or City:

Trip Planner

Search our weather history database for the weather conditions in past years. The results will help you decide how hot, cold, wet, or windy it might be!

Date:

Astronomy

Nov. 13, 2012 Rise Set
Actual Time 6:57 AM CST 5:52 PM CST
Civil Twilight 6:33 AM CST 6:16 PM CST
Nautical Twilight 6:05 AM CST 6:44 PM CST
Astronomical Twilight 5:37 AM CST 7:11 PM CST
Moon 6:36 AM CST (11/13) 5:49 PM CST (11/13)
Length of Visible Light 11h 43m
Length of Day
10h 54m
Waning Crescent, 0% of the Moon is Illuminated
Nov 13
Waning Crescent
Nov 13
New
Nov 20
First Quarter
Nov 28
Full
Dec 6
Last Quarter

Hourly Weather History & Observations

Time (CST) Temp. Dew Point Humidity Pressure Visibility Wind Dir Wind Speed Gust Speed Precip Events Conditions
12:40 AM 62.6 °F 23.0 °F 22% 30.37 in 12.0 mi ENE 11.5 mph - N/A   Mostly Cloudy
1:42 AM 60.8 °F 24.8 °F 25% 30.36 in 12.0 mi ESE 9.2 mph - N/A   Mostly Cloudy
2:40 AM 59.0 °F 24.8 °F 27% 30.38 in 12.0 mi East 13.8 mph - N/A   Mostly Cloudy
3:43 AM 59.0 °F 24.8 °F 27% 30.33 in 12.0 mi ESE 11.5 mph - N/A   Mostly Cloudy
4:40 AM 57.2 °F 26.6 °F 31% 30.32 in 12.0 mi SE 8.1 mph - N/A   Mostly Cloudy
5:42 AM 57.2 °F 24.8 °F 29% 30.19 in 12.0 mi SE 6.9 mph - N/A   Overcast
6:46 AM 57.2 °F 24.8 °F 29% 30.36 in 12.0 mi ESE 6.9 mph - N/A   Overcast
7:48 AM 57.2 °F 24.8 °F 29% 30.38 in 15.0 mi ESE 10.4 mph - N/A   Mostly Cloudy
8:46 AM 59.0 °F 24.8 °F 27% 30.24 in 15.0 mi SE 10.4 mph - N/A   Overcast
9:42 AM 59.0 °F 24.8 °F 27% 30.38 in 15.0 mi ESE 10.4 mph - N/A   Overcast
10:45 AM 60.8 °F 26.6 °F 27% 30.37 in 15.0 mi ESE 6.9 mph - N/A   Mostly Cloudy
11:45 AM 62.6 °F 28.4 °F 27% 30.38 in 15.0 mi SE 4.6 mph - N/A   Overcast
12:40 PM 62.6 °F 32.0 °F 32% 30.33 in 15.0 mi East 5.8 mph - N/A   Overcast
1:40 PM 62.6 °F 33.8 °F 34% 30.28 in 15.0 mi ESE 6.9 mph - N/A   Overcast
2:50 PM 62.6 °F 37.4 °F 39% 30.31 in 15.0 mi East 6.9 mph - N/A   Overcast
3:50 PM 60.8 °F 39.2 °F 45% 30.24 in 15.0 mi East 8.1 mph - N/A   Overcast
4:44 PM 60.8 °F 41.0 °F 48% 30.25 in 15.0 mi ESE 5.8 mph - N/A   Overcast
5:47 PM 60.8 °F 42.8 °F 52% 30.20 in 15.0 mi East 8.1 mph - N/A   Overcast
6:49 PM 59.0 °F 44.6 °F 59% 30.25 in 15.0 mi East 5.8 mph - N/A   Overcast
7:44 PM 59.0 °F 44.6 °F 59% 30.27 in 15.0 mi East 4.6 mph - N/A   Overcast
8:43 PM 59.0 °F 44.6 °F 59% 30.24 in 12.0 mi ESE 3.5 mph - N/A   Overcast
9:46 PM 59.0 °F 48.2 °F 67% 30.29 in 10.0 mi ESE 6.9 mph - N/A   Overcast
10:46 PM 57.2 °F 48.2 °F 72% 30.30 in 6.0 mi East 8.1 mph - N/A   Overcast
11:47 PM 53.6 °F 50.0 °F 88% 30.32 in 3.0 mi East 4.6 mph - N/A   Overcast